Time,TemperatureF,DewpointF,PressureIn,WindDirection,WindDirectionDegrees,WindSpeedMPH,WindSpeedGustMPH,Humidity,HourlyPrecipIn,Conditions,Clouds,dailyrainin,SoftwareType,DateUTC
2013-02-02 00:00:00,59.5,51.6,30.25,NW,326,2.0,3.0,75,0.00,,,0.00,Wunderground v.1.15,2013-02-02 05:00:00,
2013-02-02 00:10:00,59.7,51.4,30.26,North,356,4.0,4.0,74,0.00,,,0.00,Wunderground v.1.15,2013-02-02 05:10:00,
2013-02-02 00:20:00,59.6,50.9,30.25,NW,320,3.0,3.0,73,0.00,,,0.00,Wunderground v.1.15,2013-02-02 05:20:00,
2013-02-02 00:30:00,59.5,50.8,30.25,NNW,344,3.0,3.0,73,0.00,,,0.00,Wunderground v.1.15,2013-02-02 05:30:00,
2013-02-02 00:40:00,59.5,51.2,30.25,NNW,342,3.0,3.0,74,0.00,,,0.00,Wunderground v.1.15,2013-02-02 05:40:00,
2013-02-02 00:50:00,59.5,50.8,30.25,NNW,332,2.0,2.0,73,0.00,,,0.00,Wunderground v.1.15,2013-02-02 05:50:00,
2013-02-02 01:00:00,59.5,50.8,30.24,NW,326,2.0,2.0,73,0.00,,,0.00,Wunderground v.1.15,2013-02-02 06:00:00,
2013-02-02 01:10:00,59.4,50.7,30.24,North,1,2.0,2.0,73,0.00,,,0.00,Wunderground v.1.15,2013-02-02 06:10:00,
2013-02-02 01:20:00,59.3,50.6,30.24,NNW,344,1.0,3.0,73,0.00,,,0.00,Wunderground v.1.15,2013-02-02 06:20:00,
2013-02-02 01:30:00,59.2,50.5,30.24,NNW,348,2.0,2.0,73,0.00,,,0.00,Wunderground v.1.15,2013-02-02 06:30:00,
2013-02-02 01:40:00,59.2,50.5,30.24,NNE,13,3.0,3.0,73,0.00,,,0.00,Wunderground v.1.15,2013-02-02 06:40:00,
2013-02-02 01:50:00,59.1,50.5,30.24,NW,323,2.0,3.0,73,0.00,,,0.00,Wunderground v.1.15,2013-02-02 06:50:00,
2013-02-02 02:00:00,59.1,50.5,30.23,NW,326,3.0,3.0,73,0.00,,,0.00,Wunderground v.1.15,2013-02-02 07:00:00,
2013-02-02 02:10:00,59.0,50.4,30.23,NNW,342,2.0,3.0,73,0.00,,,0.00,Wunderground v.1.15,2013-02-02 07:10:00,
2013-02-02 02:20:00,58.7,49.7,30.23,NW,309,3.0,4.0,72,0.00,,,0.00,Wunderground v.1.15,2013-02-02 07:20:00,
2013-02-02 02:30:00,58.3,49.3,30.23,North,352,3.0,3.0,72,0.00,,,0.00,Wunderground v.1.15,2013-02-02 07:30:00,
2013-02-02 02:40:00,57.9,48.9,30.23,NW,316,2.0,2.0,72,0.00,,,0.00,Wunderground v.1.15,2013-02-02 07:40:00,
2013-02-02 02:50:00,57.5,48.5,30.23,North,356,2.0,2.0,72,0.00,,,0.00,Wunderground v.1.15,2013-02-02 07:50:00,
2013-02-02 03:00:00,57.5,48.2,30.23,NNW,342,3.0,3.0,71,0.00,,,0.00,Wunderground v.1.15,2013-02-02 08:00:00,
2013-02-02 03:10:00,57.4,47.7,30.23,NW,321,3.0,3.0,70,0.00,,,0.00,Wunderground v.1.15,2013-02-02 08:10:00,
2013-02-02 03:20:00,57.3,47.2,30.23,NNE,29,3.0,3.0,69,0.00,,,0.00,Wunderground v.1.15,2013-02-02 08:20:00,
2013-02-02 03:30:00,57.3,46.4,30.23,NNE,18,3.0,3.0,67,0.00,,,0.00,Wunderground v.1.15,2013-02-02 08:30:00,
2013-02-02 03:40:00,57.3,45.6,30.22,NNE,15,3.0,3.0,65,0.00,,,0.00,Wunderground v.1.15,2013-02-02 08:40:00,
2013-02-02 03:50:00,57.2,45.1,30.23,North,356,3.0,3.0,64,0.00,,,0.00,Wunderground v.1.15,2013-02-02 08:50:00,
2013-02-02 04:00:00,57.2,44.3,30.23,NW,326,3.0,3.0,62,0.00,,,0.00,Wunderground v.1.15,2013-02-02 09:00:00,
2013-02-02 04:10:00,57.1,43.3,30.23,NNW,338,4.0,4.0,60,0.00,,,0.00,Wunderground v.1.15,2013-02-02 09:10:00,
2013-02-02 04:20:00,57.1,42.5,30.23,NNE,20,4.0,5.0,58,0.00,,,0.00,Wunderground v.1.15,2013-02-02 09:20:00,
2013-02-02 04:30:00,57.2,41.6,30.23,North,358,4.0,4.0,56,0.00,,,0.00,Wunderground v.1.15,2013-02-02 09:30:00,
2013-02-02 04:40:00,57.3,40.8,30.23,NNW,328,3.0,3.0,54,0.00,,,0.00,Wunderground v.1.15,2013-02-02 09:40:00,
2013-02-02 04:50:00,57.1,40.1,30.23,NW,321,2.0,2.0,53,0.00,,,0.00,Wunderground v.1.15,2013-02-02 09:50:00,
2013-02-02 05:00:00,56.8,39.8,30.23,North,358,2.0,2.0,53,0.00,,,0.00,Wunderground v.1.15,2013-02-02 10:00:00,
2013-02-02 05:10:00,56.7,39.7,30.23,NE,34,3.0,3.0,53,0.00,,,0.00,Wunderground v.1.15,2013-02-02 10:10:00,
2013-02-02 05:20:00,56.8,39.4,30.23,North,5,3.0,3.0,52,0.00,,,0.00,Wunderground v.1.15,2013-02-02 10:20:00,
2013-02-02 05:30:00,56.6,39.2,30.23,NNW,347,2.0,2.0,52,0.00,,,0.00,Wunderground v.1.15,2013-02-02 10:30:00,
2013-02-02 05:40:00,56.5,39.1,30.23,NNW,328,3.0,3.0,52,0.00,,,0.00,Wunderground v.1.15,2013-02-02 10:40:00,
2013-02-02 05:50:00,56.4,39.0,30.24,NNW,346,3.0,3.0,52,0.00,,,0.00,Wunderground v.1.15,2013-02-02 10:50:00,
2013-02-02 06:00:00,56.4,38.5,30.24,NNW,342,3.0,3.0,51,0.00,,,0.00,Wunderground v.1.15,2013-02-02 11:00:00,
2013-02-02 06:10:00,56.4,38.5,30.25,North,9,3.0,3.0,51,0.00,,,0.00,Wunderground v.1.15,2013-02-02 11:10:00,
2013-02-02 06:20:00,56.1,38.7,30.25,NNW,338,2.0,3.0,52,0.00,,,0.00,Wunderground v.1.15,2013-02-02 11:20:00,
2013-02-02 06:30:00,56.1,38.7,30.26,NNW,347,3.0,3.0,52,0.00,,,0.00,Wunderground v.1.15,2013-02-02 11:30:00,
2013-02-02 06:40:00,56.0,38.1,30.26,NNW,339,3.0,5.0,51,0.00,,,0.00,Wunderground v.1.15,2013-02-02 11:40:00,
2013-02-02 06:50:00,56.2,37.3,30.26,NNW,332,4.0,4.0,49,0.00,,,0.00,Wunderground v.1.15,2013-02-02 11:50:00,
2013-02-02 07:00:00,56.1,37.2,30.26,North,5,4.0,5.0,49,0.00,,,0.00,Wunderground v.1.15,2013-02-02 12:00:00,
2013-02-02 07:10:00,55.9,37.5,30.26,NW,326,3.0,5.0,50,0.00,,,0.00,Wunderground v.1.15,2013-02-02 12:10:00,
2013-02-02 07:20:00,55.9,37.0,30.27,NW,311,4.0,4.0,49,0.00,,,0.00,Wunderground v.1.15,2013-02-02 12:20:00,
2013-02-02 07:30:00,55.8,37.4,30.27,NNW,334,3.0,3.0,50,0.00,,,0.00,Wunderground v.1.15,2013-02-02 12:30:00,
2013-02-02 07:40:00,55.8,37.4,30.27,NNW,340,3.0,3.0,50,0.00,,,0.00,Wunderground v.1.15,2013-02-02 12:40:00,
2013-02-02 07:50:00,56.1,37.7,30.27,NNW,340,3.0,3.0,50,0.00,,,0.00,Wunderground v.1.15,2013-02-02 12:50:00,
2013-02-02 08:00:00,56.2,37.8,30.27,North,1,3.0,5.0,50,0.00,,,0.00,Wunderground v.1.15,2013-02-02 13:00:00,
2013-02-02 08:10:00,57.1,39.1,30.27,NW,316,3.0,3.0,51,0.00,,,0.00,Wunderground v.1.15,2013-02-02 13:10:00,
2013-02-02 08:20:00,57.9,40.4,30.27,NNW,346,3.0,3.0,52,0.00,,,0.00,Wunderground v.1.15,2013-02-02 13:20:00,
2013-02-02 08:30:00,58.5,41.4,30.28,NW,308,4.0,5.0,53,0.00,,,0.00,Wunderground v.1.15,2013-02-02 13:30:00,
2013-02-02 08:40:00,59.2,43.0,30.28,NNW,338,4.0,5.0,55,0.00,,,0.00,Wunderground v.1.15,2013-02-02 13:40:00,
2013-02-02 08:50:00,60.4,44.2,30.28,North,5,3.0,3.0,55,0.00,,,0.00,Wunderground v.1.15,2013-02-02 13:50:00,
2013-02-02 09:00:00,60.3,45.0,30.28,NNW,340,4.0,4.0,57,0.00,,,0.00,Wunderground v.1.15,2013-02-02 14:00:00,
2013-02-02 09:10:00,60.7,46.3,30.28,NW,316,3.0,3.0,59,0.00,,,0.00,Wunderground v.1.15,2013-02-02 14:10:00,
2013-02-02 09:20:00,62.5,48.0,30.28,NNW,342,3.0,3.0,59,0.00,,,0.00,Wunderground v.1.15,2013-02-02 14:20:00,
2013-02-02 09:30:00,63.3,48.3,30.28,NNW,344,3.0,3.0,58,0.00,,,0.00,Wunderground v.1.15,2013-02-02 14:30:00,
2013-02-02 09:40:00,64.0,48.9,30.28,NW,312,2.0,2.0,58,0.00,,,0.00,Wunderground v.1.15,2013-02-02 14:40:00,
2013-02-02 09:50:00,65.2,50.5,30.27,NE,34,2.0,2.0,59,0.00,,,0.00,Wunderground v.1.15,2013-02-02 14:50:00,
2013-02-02 10:00:00,65.9,51.2,30.27,NNE,22,1.0,1.0,59,0.00,,,0.00,Wunderground v.1.15,2013-02-02 15:00:00,
2013-02-02 10:10:00,66.8,51.5,30.27,NNE,15,1.0,1.0,58,0.00,,,0.00,Wunderground v.1.15,2013-02-02 15:10:00,
2013-02-02 10:20:00,68.0,52.2,30.27,ENE,64,1.0,2.0,57,0.00,,,0.00,Wunderground v.1.15,2013-02-02 15:20:00,
2013-02-02 10:30:00,68.6,51.3,30.27,ESE,103,3.0,5.0,54,0.00,,,0.00,Wunderground v.1.15,2013-02-02 15:30:00,
2013-02-02 10:40:00,69.5,51.6,30.27,ENE,70,5.0,5.0,53,0.00,,,0.00,Wunderground v.1.15,2013-02-02 15:40:00,
2013-02-02 10:50:00,70.2,51.2,30.26,East,87,5.0,6.0,51,0.00,,,0.00,Wunderground v.1.15,2013-02-02 15:50:00,
2013-02-02 11:00:00,70.2,51.7,30.26,ESE,106,6.0,7.0,52,0.00,,,0.00,Wunderground v.1.15,2013-02-02 16:00:00,
2013-02-02 11:10:00,69.8,51.4,30.25,East,84,6.0,8.0,52,0.00,,,0.00,Wunderground v.1.15,2013-02-02 16:10:00,
2013-02-02 11:20:00,70.6,51.1,30.25,East,101,6.0,11.0,50,0.00,,,0.00,Wunderground v.1.15,2013-02-02 16:20:00,
2013-02-02 11:30:00,71.2,51.1,30.24,East,101,6.0,6.0,49,0.00,,,0.00,Wunderground v.1.15,2013-02-02 16:30:00,
2013-02-02 11:40:00,70.9,50.8,30.24,SE,127,6.0,6.0,49,0.00,,,0.00,Wunderground v.1.15,2013-02-02 16:40:00,
2013-02-02 11:50:00,71.1,51.0,30.24,SE,129,5.0,5.0,49,0.00,,,0.00,Wunderground v.1.15,2013-02-02 16:50:00,
2013-02-02 12:00:00,72.0,52.3,30.24,ESE,116,5.0,5.0,50,0.00,,,0.00,Wunderground v.1.15,2013-02-02 17:00:00,
2013-02-02 12:10:00,71.3,51.1,30.23,East,96,6.0,6.0,49,0.00,,,0.00,Wunderground v.1.15,2013-02-02 17:10:00,
2013-02-02 12:20:00,71.0,51.4,30.23,ESE,104,6.0,6.0,50,0.00,,,0.00,Wunderground v.1.15,2013-02-02 17:20:00,
2013-02-02 12:30:00,71.6,52.5,30.22,East,84,6.0,6.0,51,0.00,,,0.00,Wunderground v.1.15,2013-02-02 17:30:00,
2013-02-02 12:40:00,70.8,52.8,30.22,SE,146,5.0,6.0,53,0.00,,,0.00,Wunderground v.1.15,2013-02-02 17:40:00,
2013-02-02 12:50:00,71.2,51.6,30.21,ENE,71,5.0,6.0,50,0.00,,,0.00,Wunderground v.1.15,2013-02-02 17:50:00,
2013-02-02 13:00:00,70.8,51.8,30.21,ESE,120,6.0,6.0,51,0.00,,,0.00,Wunderground v.1.15,2013-02-02 18:00:00,
2013-02-02 13:10:00,71.0,52.0,30.20,ENE,65,6.0,6.0,51,0.00,,,0.00,Wunderground v.1.15,2013-02-02 18:10:00,
2013-02-02 13:20:00,71.2,50.5,30.20,SE,143,5.0,5.0,48,0.00,,,0.00,Wunderground v.1.15,2013-02-02 18:20:00,
2013-02-02 13:30:00,71.2,51.6,30.19,ENE,72,5.0,5.0,50,0.00,,,0.00,Wunderground v.1.15,2013-02-02 18:30:00,
2013-02-02 13:40:00,71.2,51.6,30.19,NE,43,6.0,6.0,50,0.00,,,0.00,Wunderground v.1.15,2013-02-02 18:40:00,
2013-02-02 13:50:00,71.4,52.3,30.18,East,82,5.0,5.0,51,0.00,,,0.00,Wunderground v.1.15,2013-02-02 18:50:00,
2013-02-02 14:00:00,71.4,51.8,30.18,ENE,65,6.0,7.0,50,0.00,,,0.00,Wunderground v.1.15,2013-02-02 19:00:00,
2013-02-02 14:10:00,71.6,52.5,30.18,ENE,73,5.0,5.0,51,0.00,,,0.00,Wunderground v.1.15,2013-02-02 19:10:00,
2013-02-02 14:20:00,70.9,51.9,30.18,ENE,65,6.0,6.0,51,0.00,,,0.00,Wunderground v.1.15,2013-02-02 19:20:00,
2013-02-02 14:30:00,71.1,52.0,30.18,East,91,4.0,4.0,51,0.00,,,0.00,Wunderground v.1.15,2013-02-02 19:30:00,
2013-02-02 14:40:00,71.1,52.6,30.17,SE,132,5.0,5.0,52,0.00,,,0.00,Wunderground v.1.15,2013-02-02 19:40:00,
2013-02-02 14:50:00,71.4,52.9,30.17,NNE,15,6.0,6.0,52,0.00,,,0.00,Wunderground v.1.15,2013-02-02 19:50:00,
2013-02-02 15:00:00,71.4,52.9,30.17,NE,47,5.0,5.0,52,0.00,,,0.00,Wunderground v.1.15,2013-02-02 20:00:00,
2013-02-02 15:10:00,71.2,53.2,30.17,ENE,74,5.0,5.0,53,0.00,,,0.00,Wunderground v.1.15,2013-02-02 20:10:00,
2013-02-02 15:20:00,70.5,52.5,30.17,NNE,26,4.0,7.0,53,0.00,,,0.00,Wunderground v.1.15,2013-02-02 20:20:00,
2013-02-02 15:30:00,71.2,53.7,30.17,SSE,160,4.0,4.0,54,0.00,,,0.00,Wunderground v.1.15,2013-02-02 20:30:00,
2013-02-02 15:40:00,71.1,53.1,30.17,East,81,3.0,5.0,53,0.00,,,0.00,Wunderground v.1.15,2013-02-02 20:40:00,
2013-02-02 15:50:00,70.8,53.3,30.16,NE,44,4.0,5.0,54,0.00,,,0.00,Wunderground v.1.15,2013-02-02 20:50:00,
2013-02-02 16:00:00,71.0,53.5,30.16,ENE,60,4.0,4.0,54,0.00,,,0.00,Wunderground v.1.15,2013-02-02 21:00:00,
2013-02-02 16:10:00,71.4,53.4,30.16,East,88,4.0,5.0,53,0.00,,,0.00,Wunderground v.1.15,2013-02-02 21:10:00,
2013-02-02 16:20:00,71.1,53.6,30.16,ENE,64,3.0,3.0,54,0.00,,,0.00,Wunderground v.1.15,2013-02-02 21:20:00,
2013-02-02 16:30:00,71.0,54.0,30.16,ESE,115,3.0,3.0,55,0.00,,,0.00,Wunderground v.1.15,2013-02-02 21:30:00,
2013-02-02 16:40:00,70.9,53.9,30.16,East,87,3.0,3.0,55,0.00,,,0.00,Wunderground v.1.15,2013-02-02 21:40:00,
2013-02-02 16:50:00,70.7,53.7,30.16,ESE,113,3.0,3.0,55,0.00,,,0.00,Wunderground v.1.15,2013-02-02 21:50:00,
2013-02-02 17:00:00,70.4,53.5,30.16,NE,48,3.0,3.0,55,0.00,,,0.00,Wunderground v.1.15,2013-02-02 22:00:00,
2013-02-02 17:10:00,70.2,54.2,30.16,ENE,78,4.0,4.0,57,0.00,,,0.00,Wunderground v.1.15,2013-02-02 22:10:00,
2013-02-02 17:20:00,70.4,54.0,30.16,ESE,122,2.0,3.0,56,0.00,,,0.00,Wunderground v.1.15,2013-02-02 22:20:00,
2013-02-02 17:30:00,70.1,53.7,30.16,ENE,77,2.0,2.0,56,0.00,,,0.00,Wunderground v.1.15,2013-02-02 22:30:00,
2013-02-02 17:40:00,69.5,53.6,30.15,ESE,112,2.0,2.0,57,0.00,,,0.00,Wunderground v.1.15,2013-02-02 22:40:00,
2013-02-02 17:50:00,69.3,53.4,30.16,East,100,1.0,2.0,57,0.00,,,0.00,Wunderground v.1.15,2013-02-02 22:50:00,
2013-02-02 18:00:00,68.8,53.9,30.15,East,90,1.0,1.0,59,0.00,,,0.00,Wunderground v.1.15,2013-02-02 23:00:00,
2013-02-02 18:10:00,68.3,53.9,30.15,ENE,67,1.0,4.0,60,0.00,,,0.00,Wunderground v.1.15,2013-02-02 23:10:00,
2013-02-02 18:20:00,67.9,54.0,30.16,ENE,77,2.0,2.0,61,0.00,,,0.00,Wunderground v.1.15,2013-02-02 23:20:00,
2013-02-02 18:30:00,67.5,54.0,30.16,East,83,1.0,1.0,62,0.00,,,0.00,Wunderground v.1.15,2013-02-02 23:30:00,
2013-02-02 18:40:00,67.1,54.1,30.16,ENE,78,0.0,0.0,63,0.00,,,0.00,Wunderground v.1.15,2013-02-02 23:40:00,
2013-02-02 18:50:00,67.0,54.0,30.16,East,85,0.0,0.0,63,0.00,,,0.00,Wunderground v.1.15,2013-02-02 23:50:00,
2013-02-02 19:00:00,66.8,54.2,30.16,ENE,77,1.0,1.0,64,0.00,,,0.00,Wunderground v.1.15,2013-02-03 00:00:00,
2013-02-02 19:10:00,66.9,54.3,30.16,East,92,0.0,0.0,64,0.00,,,0.00,Wunderground v.1.15,2013-02-03 00:10:00,
2013-02-02 19:20:00,66.7,54.6,30.16,East,91,0.0,0.0,65,0.00,,,0.00,Wunderground v.1.15,2013-02-03 00:20:00,
2013-02-02 19:30:00,66.2,54.1,30.17,East,83,0.0,0.0,65,0.00,,,0.00,Wunderground v.1.15,2013-02-03 00:30:00,
2013-02-02 19:40:00,66.2,54.5,30.17,ENE,70,0.0,0.0,66,0.00,,,0.00,Wunderground v.1.15,2013-02-03 00:40:00,
2013-02-02 19:50:00,66.4,53.8,30.17,SE,124,1.0,1.0,64,0.00,,,0.00,Wunderground v.1.15,2013-02-03 00:50:00,
2013-02-02 20:00:00,66.2,54.1,30.17,East,98,0.0,0.0,65,0.00,,,0.00,Wunderground v.1.15,2013-02-03 01:00:00,
2013-02-02 20:10:00,66.2,54.5,30.17,East,86,0.0,0.0,66,0.00,,,0.00,Wunderground v.1.15,2013-02-03 01:10:00,
2013-02-02 20:20:00,66.1,54.4,30.17,East,79,0.0,0.0,66,0.00,,,0.00,Wunderground v.1.15,2013-02-03 01:20:00,
2013-02-02 20:30:00,65.6,54.3,30.17,East,79,0.0,0.0,67,0.00,,,0.00,Wunderground v.1.15,2013-02-03 01:30:00,
2013-02-02 20:40:00,65.4,54.2,30.17,East,84,0.0,0.0,67,0.00,,,0.00,Wunderground v.1.15,2013-02-03 01:40:00,
2013-02-02 20:50:00,65.4,54.2,30.18,East,81,0.0,0.0,67,0.00,,,0.00,Wunderground v.1.15,2013-02-03 01:50:00,
2013-02-02 21:00:00,65.0,54.2,30.17,East,84,0.0,0.0,68,0.00,,,0.00,Wunderground v.1.15,2013-02-03 02:00:00,
2013-02-02 21:10:00,65.5,54.2,30.17,East,91,0.0,0.0,67,0.00,,,0.00,Wunderground v.1.15,2013-02-03 02:10:00,
2013-02-02 21:20:00,65.2,54.8,30.17,ENE,74,0.0,0.0,69,0.00,,,0.00,Wunderground v.1.15,2013-02-03 02:20:00,
2013-02-02 21:30:00,65.3,54.5,30.17,ENE,74,0.0,0.0,68,0.00,,,0.00,Wunderground v.1.15,2013-02-03 02:30:00,
2013-02-02 21:40:00,65.4,54.6,30.17,ENE,74,0.0,0.0,68,0.00,,,0.00,Wunderground v.1.15,2013-02-03 02:40:00,
2013-02-02 21:50:00,64.7,53.9,30.17,ENE,73,0.0,0.0,68,0.00,,,0.00,Wunderground v.1.15,2013-02-03 02:50:00,
2013-02-02 22:00:00,63.7,53.7,30.17,ENE,74,0.0,0.0,70,0.00,,,0.00,Wunderground v.1.15,2013-02-03 03:00:00,
2013-02-02 22:10:00,63.1,53.5,30.17,ENE,70,0.0,0.0,71,0.00,,,0.00,Wunderground v.1.15,2013-02-03 03:10:00,
2013-02-02 22:20:00,62.5,53.7,30.17,ENE,70,0.0,0.0,73,0.00,,,0.00,Wunderground v.1.15,2013-02-03 03:20:00,
2013-02-02 22:30:00,62.4,53.6,30.17,ENE,70,0.0,0.0,73,0.00,,,0.00,Wunderground v.1.15,2013-02-03 03:30:00,
2013-02-02 22:40:00,61.6,53.2,30.17,ENE,69,0.0,0.0,74,0.00,,,0.00,Wunderground v.1.15,2013-02-03 03:40:00,
2013-02-02 22:50:00,62.1,54.1,30.16,South,170,0.0,0.0,75,0.00,,,0.00,Wunderground v.1.15,2013-02-03 03:50:00,
2013-02-02 23:00:00,61.7,53.7,30.16,South,173,0.0,0.0,75,0.00,,,0.00,Wunderground v.1.15,2013-02-03 04:00:00,
2013-02-02 23:10:00,60.9,52.9,30.15,South,173,0.0,0.0,75,0.00,,,0.00,Wunderground v.1.15,2013-02-03 04:10:00,
2013-02-02 23:20:00,60.9,54.0,30.15,WSW,246,0.0,0.0,78,0.00,,,0.00,Wunderground v.1.15,2013-02-03 04:20:00,
2013-02-02 23:30:00,60.9,54.0,30.15,WSW,245,0.0,0.0,78,0.00,,,0.00,Wunderground v.1.15,2013-02-03 04:30:00,
2013-02-02 23:40:00,61.0,54.1,30.14,SSW,203,0.0,0.0,78,0.00,,,0.00,Wunderground v.1.15,2013-02-03 04:40:00,
2013-02-02 23:50:00,61.1,53.8,30.14,SSW,203,0.0,0.0,77,0.00,,,0.00,Wunderground v.1.15,2013-02-03 04:50:00,